Location: ???? ?????
(30.0052°N, 31.2891°E)
Time: 21:29:54
(UTC+00:00)

Cosmos 2341 Rocket - Pass Details

Date: 26 May 2022
Orbit: 969 x 1004 km, 82.9° (Epoch: 04 July)

Event Time Altitude Azimuth Distance (km) Brightness Sun altitude
Rises 00:57:34 0° 355° (N) 3,730 7.6 -22.1°
Reaches altitude 10° 01:00:07 10° 356° (N) 2,779 6.9 -21.7°
Maximum altitude 01:06:31 85° 84° (E) 1,011 4.0 -20.7°
Enters shadow 01:12:37 11° 174° (S) 2,663 6.0 -19.7°
